Satellite-Ground Cal/Val Region Overpasses Predictions

Prediction of Satellite NPP Overpassing Cal/Val Region: PacNW

Region Location: (Latitude: 10.00, Longitude: 139.50) to (Latitude: 22.70, Longitude: 165.60).

Table of predicted overpasses for the next 14.0 days since TLE Epoch: 10/30/2018
Interval Starting Time Starting Location Ending Time Ending Location
1 10/30/2018 14:46:15 ( 22.67, 163.42) 10/30/2018 14:49:50 ( 10.05, 160.43)
2 10/31/2018 03:36:49 ( 10.02, 145.59) 10/31/2018 03:40:25 ( 22.70, 142.57)
3 10/31/2018 14:30:17 ( 11.85, 165.60) 10/31/2018 14:30:48 ( 10.03, 165.18)
4 10/31/2018 16:08:43 ( 22.65, 142.80) 10/31/2018 16:12:18 ( 10.03, 139.80)
5 11/01/2018 03:17:48 ( 10.03, 150.34) 11/01/2018 03:21:23 ( 22.65, 147.34)
6 11/01/2018 15:49:41 ( 22.69, 147.57) 11/01/2018 15:53:17 ( 10.01, 144.55)
7 11/02/2018 02:58:46 ( 10.05, 155.09) 11/02/2018 03:02:21 ( 22.67, 152.09)
8 11/02/2018 15:30:39 ( 22.68, 152.32) 11/02/2018 15:34:14 ( 10.05, 149.32)
9 11/03/2018 02:39:44 ( 10.00, 159.85) 11/03/2018 02:43:20 ( 22.68, 156.84)
10 11/03/2018 15:11:38 ( 22.66, 157.07) 11/03/2018 15:15:13 ( 10.04, 154.07)
11 11/04/2018 02:20:42 ( 10.02, 164.61) 11/04/2018 02:24:18 ( 22.70, 161.59)
12 11/04/2018 14:52:36 ( 22.64, 161.82) 11/04/2018 14:56:11 ( 10.02, 158.82)
13 11/05/2018 03:43:11 ( 10.04, 143.98) 11/05/2018 03:46:46 ( 22.66, 140.98)
14 11/05/2018 14:34:43 ( 18.64, 165.59) 11/05/2018 14:37:10 ( 10.00, 163.57)
15 11/05/2018 16:15:04 ( 22.68, 141.21) 11/05/2018 16:17:04 ( 15.64, 139.50)
16 11/06/2018 03:24:09 ( 10.06, 148.73) 11/06/2018 03:27:44 ( 22.68, 145.73)
17 11/06/2018 15:56:02 ( 22.66, 145.96) 11/06/2018 15:59:37 ( 10.04, 142.96)
18 11/07/2018 03:05:07 ( 10.02, 153.50) 11/07/2018 03:08:43 ( 22.70, 150.49)
19 11/07/2018 15:37:01 ( 22.64, 150.71) 11/07/2018 15:40:36 ( 10.02, 147.71)
20 11/08/2018 02:46:06 ( 10.03, 158.25) 11/08/2018 02:49:41 ( 22.66, 155.25)
21 11/08/2018 15:17:58 ( 22.68, 155.48) 11/08/2018 15:21:34 ( 10.00, 152.46)
22 11/09/2018 02:27:04 ( 10.05, 163.00) 11/09/2018 02:30:39 ( 22.68, 160.00)
23 11/09/2018 14:58:57 ( 22.67, 160.23) 11/09/2018 15:02:32 ( 10.04, 157.23)
24 11/10/2018 02:10:40 ( 19.29, 165.59) 11/10/2018 02:11:38 ( 22.69, 164.75)
25 11/10/2018 03:49:32 ( 10.02, 142.39) 11/10/2018 03:52:59 ( 22.17, 139.51)
26 11/10/2018 14:39:55 ( 22.65, 164.98) 11/10/2018 14:43:30 ( 10.03, 161.98)
27 11/10/2018 16:21:24 ( 22.70, 139.62) 11/10/2018 16:21:31 ( 22.29, 139.51)
28 11/11/2018 03:30:30 ( 10.04, 147.14) 11/11/2018 03:34:05 ( 22.66, 144.14)
29 11/11/2018 16:02:23 ( 22.68, 144.37) 11/11/2018 16:05:58 ( 10.06, 141.37)
30 11/12/2018 03:11:28 ( 10.00, 151.90) 11/12/2018 03:15:04 ( 22.68, 148.89)
31 11/12/2018 15:43:21 ( 22.66, 149.12) 11/12/2018 15:46:56 ( 10.04, 146.12)


NCC Satellite Cal/Val Overpasses Prediction Service
